GW4921 Weather Reports


time (UTC)temp
C
wind
direction
speed
KPH
gust
KPH
rain 1hr
cm
rain 24hr
cm
rain mn
cm
humidity
%
barometer
mb
20260504130400 30 123 3.2 4.8 0.00 0.00 0.00 89
20260504110401 33 201 4.8 8.0 0.00 0.00 0.00 75
20260504081901 35 117 4.8 9.7 0.00 0.00 0.00 69
20260504081401 35 119 3.2 4.8 0.00 0.00 0.00 69
20260504080900 35 81 4.8 8.0 0.00 0.00 0.00 69
20260504080400 35 141 6.4 8.0 0.00 0.00 0.00 69
20260504070401 35 239 1.6 3.2 0.00 0.00 0.00 69
20260504050400 31 35 9.7 12.9 0.00 0.00 0.00 81
20260504045901 31 232 6.4 11.3 0.00 0.00 0.00 82
20260504045400 31 215 3.2 3.2 0.00 0.00 0.00 84
20260504044900 30 157 4.8 4.8 0.00 0.00 0.00 85
20260504044400 30 242 8.0 9.7 0.00 0.00 0.00 84
20260504043900 30 124 6.4 8.0 0.00 0.00 0.00 83
20260504043405 30 217 3.2 4.8 0.00 0.00 0.00 82
20260504042901 30 208 8.0 11.3 0.00 0.00 0.00 82
20260504042401 30 156 8.0 9.7 0.00 0.00 0.00 82
20260504041900 30 112 4.8 8.0 0.00 0.00 0.00 83
20260504041401 29 147 3.2 4.8 0.00 0.00 0.00 83
20260504040900 29 169 4.8 4.8 0.00 0.00 0.00 84
20260504040402 30 139 8.0 11.3 0.00 0.00 0.00 84
20260504035900 30 143 4.8 9.7 0.00 0.00 0.00 83
20260504035408 30 110 3.2 3.2 0.00 0.00 0.00 84
20260504034900 30 118 6.4 8.0 0.00 0.00 0.00 84
20260504034401 30 180 8.0 14.5 0.00 0.00 0.00 83
20260504033900 30 128 4.8 4.8 0.00 0.00 0.00 83
20260504033403 30 96 3.2 4.8 0.00 0.00 0.00 84
20260504032900 30 94 1.6 3.2 0.00 0.00 0.00 84
20260504032400 30 88 11.3 14.5 0.00 0.00 0.00 84
20260504031900 30 98 4.8 4.8 0.00 0.00 0.00 85
20260504031400 30 112 6.4 12.9 0.00 0.00 0.00 85
20260504030901 30 114 3.2 4.8 0.00 0.00 0.00 85
20260504030401 30 134 1.6 1.6 0.00 0.00 0.00 85
20260504025900 30 137 4.8 8.0 0.00 0.00 0.00 85
20260504025401 30 110 1.6 1.6 0.00 0.00 0.00 85
20260504024901 30 117 3.2 4.8 0.00 0.00 0.00 84
20260504024401 30 100 3.2 3.2 0.00 0.00 0.00 84
20260504023901 30 88 0.0 0.0 0.00 0.00 0.00 85
20260504023400 30 94 0.0 1.6 0.00 0.00 0.00 85
20260504022900 30 93 3.2 3.2 0.00 0.00 0.00 85
20260504022400 29 208 3.2 4.8 0.00 0.00 0.00 85
20260504021901 29 130 3.2 4.8 0.00 0.00 0.00 85
20260504021400 29 88 3.2 4.8 0.00 0.00 0.00 85
20260504020900 29 168 8.0 9.7 0.00 0.00 0.00 85
20260504020400 28 167 4.8 11.3 0.00 0.00 0.00 86
20260504015900 28 95 8.0 11.3 0.00 0.00 0.00 87
20260504015400 28 90 3.2 3.2 0.00 0.00 0.00 88
20260504014900 28 132 4.8 4.8 0.00 0.00 0.00 88
20260504014400 28 131 3.2 3.2 0.00 0.00 0.00 89
20260504013901 28 151 3.2 3.2 0.00 0.00 0.00 89
20260504013401 28 132 8.0 14.5 0.00 0.00 0.00 89
20260504012900 28 97 4.8 4.8 0.00 0.00 0.00 89
20260504012401 28 114 4.8 8.0 0.00 0.00 0.00 89
20260504011900 28 152 6.4 9.7 0.00 0.00 0.00 89
20260504011401 28 106 6.4 9.7 0.00 0.00 0.00 89
20260504010901 27 96 4.8 4.8 0.00 0.00 0.00 88
20260504010400 27 108 1.6 3.2 0.00 0.00 0.00 88
20260504005901 27 122 6.4 11.3 0.00 0.00 0.00 89
20260504005400 27 114 4.8 4.8 0.00 0.00 0.00 89
20260504004901 28 26 3.2 4.8 0.00 0.00 0.00 89
20260504004401 28 86 3.2 4.8 0.00 0.00 0.00 89
20260504003900 28 119 4.8 8.0 0.00 0.00 0.00 87
20260504003400 28 103 4.8 8.0 0.00 0.00 0.00 86